Location: Mahannah Oil Field
(37.4664°N, 96.6003°W)
Time: 02:53:11
(UTC+00:00)

Tiros 1 despin weight - Pass Details

Date: 30 January 2021
Orbit: 593 x 642 km, 48.2° (Epoch: 02 March)

Event Time Altitude Azimuth Distance (km) Brightness Sun altitude
Rises 00:45:14 0° 302° (WNW) 2,859 ? -11.7°
Reaches altitude 10° 00:47:33 10° 300° (WNW) 1,946 ? -12.1°
Maximum altitude 00:51:59 69° 218° (SW) 640 ? -13.0°
Drops below altitude 10° 00:56:21 10° 135° (SE) 1,918 ? -13.9°
Enters shadow 00:57:07 - 134° (SE) 2,221 ? -14.0°
Sets 00:58:37 0° 133° (SE) 2,813 - -14.3°
